EW3061 Weather Reports


time (UTC)temp
C
wind
direction
speed
KPH
gust
KPH
rain 1hr
cm
rain 24hr
cm
rain mn
cm
humidity
%
barometer
mb
20260509043037 12 0.0 0.0 0.20 0.48 0.13 1 1011.5
20260509042017 12 0.0 0.0 0.18 0.46 0.10 1 1011.5
20260509041017 12 0.0 0.0 0.13 0.41 0.05 1 1011.7
20260509040017 12 0.0 0.0 0.10 0.36 0.36 1 1011.7
20260509035017 12 0.0 0.0 0.08 0.33 0.33 1 1011.9
20260509034017 13 0.0 0.0 0.08 0.30 0.30 1 1011.9
20260509033016 13 0.0 0.0 0.08 0.28 0.28 1 1012.0
20260509032017 12 0.0 0.0 0.13 0.28 0.28 1 1012.0
20260509031016 12 0.0 0.0 0.15 0.28 0.28 1 1012.0
20260509030016 13 0.0 0.0 0.15 0.25 0.25 1 1012.0
20260509025037 13 0.0 0.0 0.18 0.25 0.25 1 1011.9
20260509024017 13 0.0 0.0 0.18 0.23 0.23 1 1011.9
20260509023017 13 0.0 0.0 0.18 0.20 0.20 1 1011.9
20260509022017 13 0.0 0.0 0.15 0.15 0.15 1 1011.9
20260509021017 13 0.0 0.0 0.13 0.13 0.13 1 1012.0
20260509020016 13 0.0 0.0 0.10 0.10 0.10 1 1012.0
20260509015056 13 0.0 0.0 0.08 0.08 0.08 1 1012.0
20260509014036 13 0.0 0.0 0.05 0.05 0.05 3 1012.0
20260509013017 13 0.0 0.0 0.03 0.03 0.03 14 1012.2
20260509012036 13 0.0 0.0 0.00 0.00 0.00 21 1012.1
20260509011016 13 0.0 0.0 0.00 0.00 0.00 29 1011.7
20260509010036 13 0.0 0.0 0.00 0.00 0.00 34 1011.1
20260509005017 13 0.0 0.0 0.00 0.00 0.00 39 1011.0
20260509004016 14 0.0 0.0 0.00 0.00 0.00 48 1010.8
20260509003016 14 0.0 1.6 0.00 0.00 0.00 51 1010.9
20260509002017 15 0.0 0.0 0.00 0.00 0.00 58 1010.9
20260509001016 15 0.0 0.0 0.00 0.00 0.00 61 1010.9
20260509000016 15 0.0 0.0 0.00 0.00 0.00 64 1011.0
20260508235016 15 0.0 0.0 0.00 0.00 0.00 67 1011.0
20260508234016 16 0.0 0.0 0.00 0.00 0.00 68 1011.3
20260508233016 17 0.0 0.0 0.00 0.00 0.00 66 1011.2
20260508232016 17 0.0 0.0 0.00 0.00 0.00 64 1011.0
20260508231016 17 0.0 0.0 0.00 0.00 0.00 62 1010.6
20260508230016 17 0.0 0.0 0.00 0.00 0.00 62 1010.6
20260508225016 17 0.0 0.0 0.00 0.00 0.00 63 1010.8
20260508224016 17 0.0 0.0 0.00 0.00 0.00 65 1010.8
20260508223016 17 0.0 0.0 0.00 0.00 0.00 64 1010.6
20260508222016 17 0.0 0.0 0.00 0.00 0.00 63 1010.6
20260508221016 17 0.0 0.0 0.00 0.00 0.00 62 1010.8
20260508220016 17 0.0 0.0 0.00 0.00 0.00 60 1010.8
20260508215016 17 0.0 0.0 0.00 0.00 0.00 61 1010.9
20260508214036 17 0.0 0.0 0.00 0.00 0.00 60 1010.7
20260508213016 18 0.0 0.0 0.00 0.00 0.00 59 1010.8
20260508212016 18 0.0 0.0 0.00 0.00 0.00 58 1011.0
20260508211016 18 0.0 0.0 0.00 0.00 0.00 56 1011.0
20260508210016 18 0.0 0.0 0.00 0.00 0.00 54 1011.1
20260508205016 18 0.0 0.0 0.00 0.00 0.00 53 1011.0
20260508204016 18 0.0 0.0 0.00 0.00 0.00 53 1011.2
20260508203016 18 0.0 0.0 0.00 0.00 0.00 53 1011.3
20260508202016 18 0.0 0.0 0.00 0.00 0.00 52 1011.6
20260508201016 18 0.0 0.0 0.00 0.00 0.00 54 1011.8
20260508200016 18 0.0 0.0 0.00 0.00 0.00 56 1012.0
20260508195036 18 0.0 0.0 0.00 0.00 0.00 54 1012.1
20260508194016 18 0.0 0.0 0.00 0.00 0.00 53 1012.5
20260508193016 19 0.0 0.0 0.00 0.00 0.00 52 1012.4
20260508192016 19 0.0 0.0 0.00 0.00 0.00 54 1012.7
20260508191016 19 0.0 0.0 0.00 0.00 0.00 51 1012.7
20260508190016 19 0.0 0.0 0.00 0.00 0.00 51 1012.7
20260508185016 19 0.0 0.0 0.00 0.00 0.00 48 1012.9
20260508184016 19 0.0 0.0 0.00 0.00 0.00 49 1012.9
20260508183016 19 0.0 1.6 0.00 0.00 0.00 49 1013.0
20260508182016 19 0.0 0.0 0.00 0.00 0.00 50 1013.1
20260508181116 20 0.0 0.0 0.00 0.00 0.00 53 1013.2
20260508180016 20 0.0 0.0 0.00 0.00 0.00 53 1013.7
20260508175016 19 0.0 0.0 0.00 0.00 0.00 53 1013.4
20260508174016 18 0.0 0.0 0.00 0.00 0.00 57 1013.8
20260508173016 17 0.0 0.0 0.00 0.00 0.00 58 1013.9
20260508172016 18 0.0 0.0 0.00 0.00 0.00 57 1014.2
20260508171016 17 0.0 0.0 0.00 0.00 0.00 56 1014.4
20260508170016 17 0.0 0.0 0.00 0.00 0.00 58 1014.5
20260508165016 17 0.0 0.0 0.00 0.00 0.00 58 1014.6
20260508164016 17 0.0 0.0 0.00 0.00 0.00 59 1014.8
20260508163016 17 0.0 0.0 0.00 0.00 0.00 59 1014.9
20260508162036 17 0.0 0.0 0.00 0.00 0.00 57 1015.1
20260508161016 17 0.0 0.0 0.00 0.00 0.00 57 1015.0
20260508160036 17 0.0 0.0 0.00 0.00 0.00 60 1015.3
20260508155016 17 0.0 0.0 0.00 0.00 0.00 58 1015.3
20260508154016 17 0.0 0.0 0.00 0.00 0.00 60 1015.3
20260508153016 17 0.0 0.0 0.00 0.00 0.00 61 1015.4
20260508152016 17 0.0 0.0 0.00 0.00 0.00 60 1015.2
20260508151156 16 0.0 0.0 0.00 0.00 0.00 57 1015.1
20260508150016 16 0.0 0.0 0.00 0.00 0.00 62 1015.3
20260508145035 16 0.0 0.0 0.00 0.00 0.00 60 1015.4
20260508144016 15 0.0 1.6 0.00 0.00 0.00 61 1015.6
20260508143036 15 0.0 0.0 0.00 0.00 0.00 61 1015.8
20260508142016 15 0.0 0.0 0.00 0.00 0.00 60 1015.7
20260508141115 15 0.0 0.0 0.00 0.00 0.00 63 1015.8
20260508140015 14 0.0 0.0 0.00 0.00 0.00 62 1015.8
20260508135016 14 0.0 1.6 0.00 0.00 0.00 60 1016.0
20260508134035 13 0.0 0.0 0.00 0.00 0.00 62 1016.1
20260508133015 13 0.0 0.0 0.00 0.00 0.00 61 1016.1
20260508132016 13 0.0 0.0 0.00 0.00 0.00 61 1016.1
20260508131015 13 0.0 0.0 0.00 0.00 0.00 62 1016.1
20260508130016 12 0.0 0.0 0.00 0.00 0.00 62 1016.0
20260508125015 12 0.0 0.0 0.00 0.00 0.00 62 1016.1
20260508124016 12 0.0 0.0 0.00 0.00 0.00 63 1015.9
20260508123016 11 0.0 0.0 0.00 0.00 0.00 63 1015.8
20260508122015 11 0.0 0.0 0.00 0.00 0.00 64 1015.8
20260508121055 11 0.0 0.0 0.00 0.00 0.00 65 1015.7
20260508120035 10 0.0 0.0 0.00 0.00 0.00 65 1015.7
20260508115015 10 0.0 0.0 0.00 0.00 0.00 67 1015.5
20260508114015 10 0.0 0.0 0.00 0.00 0.00 67 1015.5
20260508113016 9 0.0 0.0 0.00 0.00 0.00 69 1015.4
20260508112015 9 0.0 0.0 0.00 0.00 0.00 69 1015.3
20260508111016 9 0.0 0.0 0.00 0.00 0.00 69 1015.1
20260508110015 9 0.0 0.0 0.00 0.00 0.00 69 1015.2
20260508105015 9 0.0 0.0 0.00 0.00 0.00 68 1015.3
20260508104036 9 0.0 0.0 0.00 0.00 0.00 68 1015.2
20260508103015 10 0.0 0.0 0.00 0.00 0.00 67 1015.2
20260508102015 10 0.0 0.0 0.00 0.00 0.00 67 1015.3
20260508101015 10 0.0 0.0 0.00 0.00 0.00 67 1015.4
20260508100015 10 0.0 0.0 0.00 0.00 0.00 66 1015.3
20260508095015 10 0.0 0.0 0.00 0.00 0.00 67 1015.4
20260508094015 10 0.0 0.0 0.00 0.00 0.00 67 1015.4
20260508093015 10 0.0 0.0 0.00 0.00 0.00 66 1015.4
20260508092015 10 0.0 0.0 0.00 0.00 0.00 65 1015.5
20260508091015 10 0.0 0.0 0.00 0.00 0.00 64 1015.5
20260508090015 10 0.0 0.0 0.00 0.00 0.00 63 1015.5
20260508085015 11 0.0 0.0 0.00 0.00 0.00 63 1015.5
20260508084035 11 0.0 0.0 0.00 0.00 0.00 62 1015.4
20260508083015 11 0.0 0.0 0.00 0.00 0.00 62 1015.6
20260508082015 11 0.0 0.0 0.00 0.00 0.00 61 1015.6
20260508081015 11 0.0 0.0 0.00 0.00 0.00 63 1015.5
20260508080015 10 0.0 0.0 0.00 0.00 0.00 61 1015.6
20260508075015 10 0.0 0.0 0.00 0.00 0.00 61 1015.7
20260508074015 11 0.0 0.0 0.00 0.00 0.00 61 1015.7
20260508073015 11 0.0 0.0 0.00 0.00 0.00 61 1015.7
20260508072015 11 0.0 0.0 0.00 0.00 0.00 61 1015.7
20260508071015 11 0.0 0.0 0.00 0.00 0.00 61 1015.6
20260508070015 11 0.0 0.0 0.00 0.00 0.00 60 1015.7
20260508065035 11 0.0 0.0 0.00 0.00 0.00 60 1015.9
20260508064015 11 0.0 0.0 0.00 0.00 0.00 60 1016.0
20260508063015 11 0.0 0.0 0.00 0.00 0.00 60 1016.1
20260508062017 11 0.0 0.0 0.00 0.00 0.00 60 1016.1
20260508061017 11 0.0 0.0 0.00 0.00 0.00 60 1016.2
20260508060017 11 0.0 0.0 0.00 0.00 0.00 61 1016.3
20260508055017 11 0.0 0.0 0.00 0.00 0.00 62 1016.2
20260508054017 11 0.0 0.0 0.00 0.00 0.00 61 1016.5
20260508053017 11 0.0 0.0 0.00 0.00 0.00 61 1016.5
20260508052017 11 0.0 0.0 0.00 0.00 0.00 62 1016.3
20260508051017 11 0.0 0.0 0.00 0.00 0.00 62 1016.3
20260508050057 11 0.0 0.0 0.00 0.00 0.00 62 1016.3
20260508045015 11 0.0 0.0 0.00 0.00 0.00 61 1016.2
20260508044017 11 0.0 0.0 0.00 0.00 0.00 61 1016.1